KD9SK-13 Weather Reports


time (UTC)temp
F
wind
direction
speed
knots
gust
knots
rain 1hr
in
rain 24hr
in
rain mn
in
humidity
%
barometer
mb
20260505211003 74 134 0.9 2.6 0.00 0.00 0.00 90 1005.9
20260505210503 74 7 0.0 0.9 0.00 0.00 0.00 90 1006.3
20260505210002 74 56 0.0 0.0 0.00 0.00 0.00 91 1006.3
20260505205503 74 56 0.0 0.9 0.00 0.00 0.00 91 1006.1
20260505205002 73 109 0.0 0.0 0.00 0.00 0.00 92 1006.2
20260505204502 73 109 0.0 0.9 0.00 0.00 0.00 92 1006.0
20260505204003 73 109 0.9 0.9 0.00 0.00 0.00 92 1006.0
20260505203502 73 109 0.0 0.9 0.00 0.00 0.00 91 1006.2
20260505203002 73 114 0.0 0.0 0.00 0.00 0.00 91 1006.2
20260505202502 73 114 0.0 0.0 0.00 0.00 0.00 91 1006.2
20260505202002 73 114 0.0 0.0 0.00 0.00 0.00 90 1006.2
20260505201502 73 114 0.0 0.0 0.00 0.00 0.00 90 1006.4
20260505201002 73 114 0.0 0.9 0.00 0.00 0.00 89 1006.4
20260505200503 74 114 0.0 0.9 0.00 0.00 0.00 89 1006.4
20260505200002 74 203 0.0 1.7 0.00 0.00 0.00 89 1006.3
20260505195502 74 142 0.9 2.6 0.00 0.00 0.00 90 1006.2
20260505195002 74 257 0.9 2.6 0.00 0.00 0.00 90 1006.1
20260505194502 74 183 0.0 1.7 0.00 0.00 0.00 92 1005.8
20260505194002 73 123 0.9 1.7 0.00 0.00 0.00 93 1005.8
20260505193503 73 137 0.0 0.9 0.00 0.00 0.00 94 1005.9
20260505193002 72 137 0.0 0.9 0.00 0.00 0.00 95 1006.0
20260505192502 71 139 0.0 1.7 0.00 0.00 0.00 95 1006.1
20260505192002 71 129 0.9 1.7 0.00 0.00 0.00 95 1006.2
20260505191502 71 138 0.0 0.9 0.00 0.00 0.00 95 1006.5
20260505191002 70 136 0.0 0.9 0.00 0.00 0.00 95 1006.6
20260505190503 70 136 0.0 0.9 0.00 0.00 0.00 95 1006.7
20260505190002 70 134 0.0 0.9 0.00 0.00 0.00 95 1006.7
20260505185502 69 137 0.9 2.6 0.00 0.00 0.00 95 1006.7
20260505185002 69 204 0.0 1.7 0.00 0.00 0.00 95 1006.7
20260505184502 69 150 0.9 1.7 0.00 0.00 0.00 95 1006.7
20260505183502 69 139 0.0 0.9 0.00 0.00 0.00 95 1006.7
20260505183003 69 138 0.9 1.7 0.00 0.00 0.00 95 1006.8
20260505182502 69 230 0.0 0.9 0.00 0.00 0.00 95 1006.9
20260505182002 69 212 0.0 0.0 0.00 0.00 0.00 95 1006.9
20260505181502 69 212 0.0 0.0 0.00 0.00 0.00 95 1006.9
20260505181002 68 215 0.0 0.0 0.00 0.00 0.00 95 1006.9
20260505180502 68 200 0.0 0.9 0.00 0.00 0.00 95 1007.0
20260505180002 68 205 0.0 0.9 0.00 0.00 0.00 95 1007.1
20260505175501 68 266 0.0 1.7 0.00 0.00 0.00 95 1007.1
20260505175002 68 166 0.0 0.9 0.00 0.00 0.00 95 1007.2
20260505174502 68 166 0.0 0.0 0.00 0.00 0.00 95 1007.2
20260505174001 68 166 0.0 0.9 0.00 0.00 0.00 95 1007.4
20260505173503 68 260 0.0 1.7 0.00 0.00 0.00 95 1007.3
20260505173002 68 149 0.0 0.9 0.00 0.00 0.00 95 1007.2
20260505172503 68 131 0.0 0.9 0.00 0.00 0.00 95 1007.2
20260505172002 68 295 0.0 0.9 0.00 0.00 0.00 95 1007.2
20260505171502 68 295 0.0 0.9 0.00 0.00 0.00 95 1007.4
20260505171003 68 295 0.0 0.9 0.00 0.00 0.00 95 1007.5
20260505165502 67 133 0.0 0.9 0.00 0.00 0.00 95 1007.5
20260505165002 67 133 0.0 0.0 0.00 0.00 0.00 95 1007.6
20260505164503 67 133 0.0 0.9 0.00 0.00 0.00 95 1007.7
20260505164002 67 133 0.0 0.9 0.00 0.00 0.00 95 1007.7
20260505163502 67 136 0.0 0.9 0.00 0.00 0.00 95 1007.7
20260505163002 67 148 0.0 0.0 0.00 0.00 0.00 95 1007.6
20260505162003 67 82 0.0 2.6 0.00 0.00 0.00 95 1007.6
20260505161502 67 136 0.9 1.7 0.00 0.00 0.00 95 1007.5
20260505161002 67 143 0.0 0.0 0.00 0.00 0.00 95 1007.6
20260505160502 67 143 0.0 0.9 0.00 0.00 0.00 95 1007.6
20260505153002 67 145 0.0 0.0 0.00 0.00 0.00 94 1007.8
20260505151502 67 124 0.0 1.7 0.00 0.00 0.00 94 1007.9
20260505151002 66 132 0.0 0.9 0.00 0.00 0.00 94 1007.9
20260505140502 66 148 0.0 0.0 0.00 0.00 0.00 94 1007.7
20260505125002 66 150 0.0 0.9 0.00 0.00 0.00 90 1007.4
20260505124502 66 150 0.0 1.7 0.00 0.00 0.00 90 1007.4
20260505124002 66 297 0.0 0.0 0.00 0.00 0.00 90 1007.4
20260505123503 66 136 0.0 0.9 0.00 0.00 0.00 90 1007.3
20260505123003 66 136 0.0 0.9 0.00 0.00 0.00 89 1007.3
20260505122502 66 135 0.0 2.6 0.00 0.00 0.00 89 1007.3
20260505122003 66 135 0.0 0.0 0.00 0.00 0.00 89 1007.2
20260505121502 66 135 0.0 0.0 0.00 0.00 0.00 89 1007.2
20260505121002 66 135 0.0 0.0 0.00 0.00 0.00 88 1007.0
20260505120502 66 135 0.0 1.7 0.00 0.00 0.00 88 1007.0
20260505120002 66 137 0.9 1.7 0.00 0.00 0.00 88 1006.9
20260505115503 66 128 0.0 0.9 0.00 0.00 0.00 88 1006.7
20260505115002 66 128 0.0 0.9 0.00 0.00 0.00 87 1006.7
20260505114503 66 128 0.0 0.9 0.00 0.00 0.00 87 1006.6
20260505114003 66 128 0.0 0.9 0.00 0.00 0.00 87 1006.5
20260505113002 66 153 0.0 1.7 0.00 0.00 0.00 86 1006.4
20260505112503 66 115 0.0 2.6 0.00 0.00 0.00 86 1006.3
20260505111503 66 162 0.0 1.7 0.00 0.00 0.00 86 1006.4
20260505111002 66 141 0.9 1.7 0.00 0.00 0.00 85 1006.2
20260505110503 66 142 0.0 2.6 0.00 0.00 0.00 85 1006.3
20260505102003 66 183 0.0 0.9 0.00 0.00 0.00 84 1006.2
20260505101502 66 152 0.9 2.6 0.00 0.00 0.00 83 1006.3
20260505101003 66 129 0.0 0.0 0.00 0.00 0.00 83 1006.3
20260505100504 66 137 0.0 1.7 0.00 0.00 0.00 83 1006.3
20260505100003 66 130 0.0 0.9 0.00 0.00 0.00 83 1006.3
20260505095502 67 148 0.9 1.7 0.00 0.00 0.00 82 1006.2
20260505095002 67 194 0.0 1.7 0.00 0.00 0.00 82 1006.3
20260505094503 67 122 0.9 2.6 0.00 0.00 0.00 82 1006.3
20260505094003 67 134 0.9 2.6 0.00 0.00 0.00 82 1006.3
20260505093003 67 133 0.9 1.7 0.00 0.00 0.00 81 1006.2
20260505092502 67 164 0.9 1.7 0.00 0.00 0.00 81 1006.2
20260505092003 67 169 0.9 2.6 0.00 0.00 0.00 81 1006.3
20260505091502 67 155 0.9 1.7 0.00 0.00 0.00 80 1006.3
20260505091002 67 210 0.9 2.6 0.00 0.00 0.00 80 1006.5
20260505090002 67 135 0.9 2.6 0.00 0.00 0.00 80 1006.6
20260505085503 67 135 0.9 2.6 0.00 0.00 0.00 79 1006.5
20260505085003 67 153 0.9 2.6 0.00 0.00 0.00 79 1006.5
20260505084503 67 164 0.9 2.6 0.00 0.00 0.00 79 1006.6
20260505084003 67 151 0.9 2.6 0.00 0.00 0.00 79 1006.7
20260505083503 67 195 0.9 2.6 0.00 0.00 0.00 79 1006.9
20260505083003 67 293 0.9 1.7 0.00 0.00 0.00 79 1006.9
20260505082503 67 252 0.9 2.6 0.00 0.00 0.00 78 1006.9
20260505082003 67 144 0.9 1.7 0.00 0.00 0.00 78 1007.0
20260505081502 67 141 0.9 2.6 0.00 0.00 0.00 78 1007.1
20260505081002 67 147 0.9 1.7 0.00 0.00 0.00 78 1007.0
20260505080503 67 169 0.0 0.0 0.00 0.00 0.00 78 1007.1
20260505080003 67 152 0.0 1.7 0.00 0.00 0.00 77 1007.2
20260505075503 67 142 0.9 1.7 0.00 0.00 0.00 77 1007.2
20260505075003 67 155 0.9 1.7 0.00 0.00 0.00 77 1007.2
20260505074502 67 165 0.0 1.7 0.00 0.00 0.00 77 1007.2
20260505073502 67 120 0.9 2.6 0.00 0.00 0.00 77 1007.2
20260505073002 67 306 0.0 1.7 0.00 0.00 0.00 77 1007.3
20260505072502 67 137 0.9 1.7 0.00 0.00 0.00 77 1007.2
20260505071503 67 146 0.9 1.7 0.00 0.00 0.00 76 1007.5
20260505070003 67 124 0.0 0.9 0.00 0.00 0.00 75 1007.7
20260505065502 67 131 0.0 0.9 0.00 0.00 0.00 74 1007.8
20260505065004 67 155 0.9 1.7 0.00 0.00 0.00 74 1007.8
20260505064502 67 147 0.9 1.7 0.00 0.00 0.00 74 1007.9
20260505064003 67 150 0.0 1.7 0.00 0.00 0.00 73 1007.9
20260505063503 67 207 0.9 4.3 0.00 0.00 0.00 73 1008.1
20260505063003 67 152 0.9 2.6 0.00 0.00 0.00 73 1008.1
20260505062003 67 221 0.0 1.7 0.00 0.00 0.00 73 1008.3
20260505061502 67 154 0.9 1.7 0.00 0.00 0.00 73 1008.3
20260505061003 67 138 0.0 2.6 0.00 0.00 0.00 73 1008.4
20260505060502 67 27 0.0 1.7 0.00 0.00 0.00 73 1008.4
20260505055503 67 198 0.9 1.7 0.00 0.00 0.00 72 1008.5
20260505055003 67 138 0.0 0.9 0.00 0.00 0.00 71 1008.5
20260505054503 67 52 0.0 0.0 0.00 0.00 0.00 71 1008.7
20260505054003 67 105 0.0 0.9 0.00 0.00 0.00 71 1008.7
20260505053503 67 105 0.0 1.7 0.00 0.00 0.00 71 1008.8
20260505053003 67 213 0.0 0.9 0.00 0.00 0.00 70 1008.8
20260505052502 67 251 0.0 2.6 0.00 0.00 0.00 70 1008.8
20260505052003 67 173 0.0 0.9 0.00 0.00 0.00 70 1008.9
20260505051502 67 171 0.0 1.7 0.00 0.00 0.00 69 1008.7
20260505051002 67 147 0.0 0.9 0.00 0.00 0.00 69 1008.8
20260505050503 67 147 0.0 0.9 0.00 0.00 0.00 70 1008.9
20260505041502 68 73 0.0 0.9 0.00 0.00 0.00 67 1009.1
20260505041003 68 73 0.0 0.9 0.00 0.00 0.00 67 1009.1
20260505040503 68 141 0.0 0.9 0.00 0.00 0.00 68 1009.2
20260505040004 68 141 0.0 0.0 0.00 0.00 0.00 67 1009.3
20260505035504 68 141 0.0 0.9 0.00 0.00 0.00 67 1009.3
20260505035003 68 141 0.0 0.0 0.00 0.00 0.00 67 1009.3
20260505034502 69 141 0.0 0.9 0.00 0.00 0.00 66 1009.3
20260505034003 69 141 0.0 0.0 0.00 0.00 0.00 66 1009.3
20260505033504 69 141 0.0 0.0 0.00 0.00 0.00 66 1009.3
20260505033003 69 147 0.0 0.0 0.00 0.00 0.00 66 1009.4
20260505032502 69 147 0.0 0.0 0.00 0.00 0.00 65 1009.4
20260505032002 69 147 0.0 0.9 0.00 0.00 0.00 65 1009.4
20260505031502 69 147 0.0 0.9 0.00 0.00 0.00 65 1009.3
20260505031003 69 297 0.0 0.9 0.00 0.00 0.00 65 1009.3
20260505030503 69 292 0.0 0.9 0.00 0.00 0.00 65 1009.4
20260505030004 69 292 0.0 0.9 0.00 0.00 0.00 65 1009.3
20260505024503 69 133 0.0 1.7 0.00 0.00 0.00 66 1009.0
20260505024003 70 133 0.0 0.9 0.00 0.00 0.00 66 1009.0
20260505023503 70 133 0.9 1.7 0.00 0.00 0.00 66 1009.0
20260505022502 69 142 0.0 0.9 0.00 0.00 0.00 66 1008.7
20260505022003 70 131 0.0 1.7 0.00 0.00 0.00 66 1008.5
20260505021003 70 134 0.0 0.9 0.00 0.00 0.00 66 1008.6
20260505020502 69 132 0.0 0.0 0.00 0.00 0.00 66 1008.6
20260505015503 69 132 0.0 0.9 0.00 0.00 0.00 66 1008.6
20260505015003 70 132 0.0 0.9 0.00 0.00 0.00 67 1008.4
20260505014003 70 132 0.0 0.0 0.00 0.00 0.00 66 1008.3
20260505013503 70 132 0.0 0.0 0.00 0.00 0.00 66 1008.3
20260505012503 71 132 0.0 0.0 0.00 0.00 0.00 65 1008.4
20260505012002 71 132 0.0 0.0 0.00 0.00 0.00 65 1008.3
20260505011503 71 132 0.0 0.0 0.00 0.00 0.00 63 1008.2
20260505011003 71 132 0.0 0.9 0.00 0.00 0.00 63 1008.2
20260505010502 72 139 0.0 0.9 0.00 0.00 0.00 63 1007.9
20260505010003 72 139 0.0 0.0 0.00 0.00 0.00 62 1008.2
20260505005502 72 139 0.0 0.0 0.00 0.00 0.00 63 1008.1
20260505004002 73 139 0.0 0.9 0.00 0.00 0.00 61 1008.1
20260505003502 74 139 0.0 0.9 0.00 0.00 0.00 60 1008.2
20260505002503 74 132 0.0 0.9 0.00 0.00 0.00 59 1008.3
20260505001503 74 132 0.0 0.9 0.00 0.00 0.00 58 1008.3
20260505001003 75 132 0.0 0.9 0.00 0.00 0.00 57 1008.2
20260505000503 75 132 0.9 1.7 0.00 0.00 0.00 59 1008.3
20260505000003 75 142 0.0 1.7 0.00 0.00 0.00 57 1008.3
20260504235502 75 150 0.0 0.9 0.00 0.00 0.00 57 1008.4
20260504235003 75 137 0.9 1.7 0.00 0.00 0.00 58 1008.4
20260504234003 76 6 0.0 0.0 0.00 0.00 0.00 57 1008.4
20260504233503 76 5 0.0 0.0 0.00 0.00 0.00 57 1008.5
20260504233004 76 6 0.0 0.9 0.00 0.00 0.00 56 1008.7
20260504232502 76 5 0.0 0.9 0.00 0.00 0.00 55 1008.7
20260504232003 77 275 0.0 0.9 0.00 0.00 0.00 54 1008.7
20260504231503 77 168 0.0 1.7 0.00 0.00 0.00 54 1008.7
20260504231003 77 149 0.0 1.7 0.00 0.00 0.00 54 1008.7
20260504230503 77 274 0.0 0.9 0.00 0.00 0.00 54 1008.8
20260504230003 77 133 0.9 1.7 0.00 0.00 0.00 53 1009.0
20260504225502 78 212 0.0 1.7 0.00 0.00 0.00 53 1009.1
20260504225002 78 145 0.0 1.7 0.00 0.00 0.00 53 1009.1
20260504224503 78 199 0.0 2.6 0.00 0.00 0.00 53 1009.1
20260504224003 78 210 0.0 0.9 0.00 0.00 0.00 52 1009.1
20260504223503 78 215 0.0 1.7 0.00 0.00 0.00 52 1009.1
20260504223004 78 214 0.9 5.2 0.00 0.00 0.00 52 1009.2
20260504222503 78 250 0.0 1.7 0.00 0.00 0.00 52 1009.2
20260504222003 78 264 0.9 2.6 0.00 0.00 0.00 51 1009.2
20260504221503 78 162 0.9 2.6 0.00 0.00 0.00 51 1009.3
20260504221003 78 248 0.9 2.6 0.00 0.00 0.00 49 1009.4
20260504220503 78 232 0.0 1.7 0.00 0.00 0.00 50 1009.4
20260504215502 79 170 0.0 2.6 0.00 0.00 0.00 51 1009.5
20260504215004 78 167 0.9 2.6 0.00 0.00 0.00 50 1009.6
20260504214003 78 145 1.7 4.3 0.00 0.00 0.00 51 1009.7
20260504213503 78 276 0.0 1.7 0.00 0.00 0.00 50 1009.8
20260504213002 79 178 1.7 5.2 0.00 0.00 0.00 49 1009.8
20260504212003 79 194 0.9 2.6 0.00 0.00 0.00 51 1009.9
20260504211503 79 136 0.9 2.6 0.00 0.00 0.00 50 1010.1